Home   Weather   Lautoka   Past weeks
Flag for Fiji

Past Weather in Lautoka, Fiji — Yesterday and Last 2 Weeks

Now
75 °F

Passing clouds.


Feels Like: 75 °F
Forecast: 87 / 73 °F
Wind: 5 mph from Southeast

Location: Nandi

Current Time: Oct 22, 2019 at 3:59:35 am

Latest Report: Oct 22, 2019 at 3:00 am


Visibility: N/A

Pressure: 29.89 "Hg

Humidity: 89%

Dew Point: 72 °F

Location of LautokaLocation

Past Weather in Lautoka — Graph

°F

Lautoka Temperature Yesterday

Maximum temperature yesterday: 86 °F (at 10:00 am)
Minimum temperature yesterday: 73 °F (at 2:00 am)
Average temperature yesterday: 80 °F

High & Low Weather Summary for the Past Weeks

 TemperatureHumidityPressure
High90 °F (Oct 14, 1:00 pm)100% (Oct 8, 6:20 am)30.01 "Hg (Oct 8, 6:20 am)
Low70 °F (Oct 10, 5:00 am)46% (Oct 14, 1:00 pm)29.77 "Hg (Oct 15, 3:00 pm)
Average79 °F82%29.90 "Hg
* Reported Oct 7 2:00 am — Oct 22 2:00 am, Lautoka. Weather by CustomWeather, © 2019

Note: Actual official high and low records may vary slightly from our data, if they occured in-between our weather recording intervals... More about our weather records

Advertising

Lautoka Weather History for the Previous 24 Hours

Scroll right to see more
 ConditionsComfort  
Time TempWeatherWind HumidityBarometerVisibility
2:00 am
Tue, Oct 22
75 °FPassing clouds.5 mph94%29.89 "HgN/A
1:00 am75 °FPassing clouds.3 mph94%29.92 "HgN/A
12:00 am75 °FPassing clouds.5 mph94%29.95 "HgN/A
11:00 pm
Mon, Oct 21
77 °FPassing clouds.7 mph89%29.95 "HgN/A
10:00 pm79 °FPassing clouds.7 mph74%29.95 "HgN/A
9:00 pm79 °FPassing clouds.5 mph84%29.95 "HgN/A
8:00 pm79 °FPassing clouds.5 mph84%29.92 "HgN/A
7:00 pm81 °FPartly cloudy.3 mph79%29.92 "HgN/A
6:00 pm82 °FBroken clouds.8 mph74%29.89 "HgN/A
5:00 pm82 °FScattered clouds.12 mph89%29.86 "HgN/A
4:00 pm86 °FScattered clouds.14 mph79%29.86 "HgN/A
3:00 pm86 °FScattered clouds.13 mph75%29.86 "HgN/A
2:00 pm86 °FScattered clouds.14 mph70%29.86 "HgN/A
1:00 pm86 °FScattered clouds.14 mph66%29.89 "HgN/A
12:00 pm86 °FScattered clouds.15 mph66%29.92 "HgN/A
11:00 am86 °FScattered clouds.14 mph66%29.95 "HgN/A
10:00 am86 °FPassing clouds.9 mph59%29.95 "HgN/A
9:00 am84 °FPassing clouds.2 mph66%29.95 "HgN/A
8:00 am82 °FPassing clouds.7 mph74%29.95 "HgN/A
7:00 am77 °FPassing clouds.3 mph89%29.95 "HgN/A
6:00 am73 °FPassing clouds.3 mph89%29.95 "HgN/A
5:00 am73 °FPassing clouds.6 mph89%29.92 "HgN/A
4:00 am73 °FPassing clouds.3 mph89%29.92 "HgN/A
3:00 am73 °FPassing clouds.2 mph89%29.92 "HgN/A
Weather by CustomWeather, © 2019

See weather overview